Regional Weather Roundup
Issued by NWS Green Bay, WI

Home | Current Version | Previous Version | Text Only | Print | Product List | Glossary On
Versions: 1 2 3 4 5 6 7 8 9 10 11 12 13 14 15 16 17 18 19 20 21 22 23 24 25 26 27 28 29 30 31 32 33 34 35 36 37 38 39 40 41 42 43 44 45 46 47 48 49 50
000
ASUS43 KGRB 191110
RWRGRB

NORTH-CENTRAL AND NORTHEAST WISCONSIN REGIONAL WEATHER ROUNDUP
NATIONAL WEATHER SERVICE GREEN BAY WI
500 AM CST FRI DEC 19 2014

WIZ005-009-010>012-018-019-191200-
NORTH CENTRAL WISCONSIN

CITY           SKY/WX    TMP DP  RH WIND       PRES   REMARKS
IRONWOOD       PTCLDY     5   3  92 CALM      30.22S
MANITOWISH WTR CLOUDY    11  10  95 CALM      30.22S
ARBOR VITAE    FOG       11   8  87 CALM      30.22S VSB 1/4
EAGLE RIVER    PTCLDY     1  -4  80 CALM      30.22S
LAND O LAKES   CLOUDY    -3  -7  84 CALM      30.23S
RHINELANDER    FOG        3   0  87 CALM      30.22S VSB 1/4
PHILLIPS       CLOUDY    17  15  93 CALM      30.22S
ANTIGO         CLEAR      9   7  92 CALM      30.23S
TOMAHAWK       CLOUDY     7   4  89 CALM      30.24S
MERRILL        PTCLDY    10   8  92 CALM      30.24F
$$

WIZ013-073-191200-
NORTHEAST WISCONSIN

CITY           SKY/WX    TMP DP  RH WIND       PRES   REMARKS
IRON MOUNTAIN  MOCLDY     2  -1  88 N3        30.25R
MARINETTE      PTCLDY    16  12  86 NW5       30.27S WCI   9
OCONTO         CLEAR     14  13  97 CALM      30.29R
$$

WIZ017-030-035>037-045-191200-
CENTRAL WISCONSIN

CITY           SKY/WX    TMP DP  RH WIND       PRES   REMARKS
MEDFORD        CLOUDY    21  19  91 CALM      30.22S
WAUSAU         PTCLDY    16  13  88 NW3       30.24S
MOSINEE        NOT AVBL
MARSHFIELD     CLOUDY    24  20  84 CALM      30.24F
WISC RAPIDS    CLOUDY    23  19  85 CALM      30.28S
STEVENS POINT  MOCLDY    11   9  89 CALM      30.27R
WAUPACA        PTCLDY    17  15  89 CALM      30.28S
SHAWANO        CLEAR     16  13  89 CALM      30.29R
CLINTONVILLE   CLEAR     16  14  93 CALM      30.28R
$$

WIZ038-039-048-051-191200-
FOX VALLEY

CITY           SKY/WX    TMP DP  RH WIND       PRES   REMARKS
NWS GREEN BAY  CLEAR     17  15  92 CALM      30.28S
APPLETON       NOT AVBL
OSHKOSH        PTCLDY    19  15  84 W3        30.28R
FOND DU LAC    CLEAR     16  12  84 CALM      30.28R
$$

WIZ022-050-052-191200-
EAST CENTRAL WISCONSIN

CITY           SKY/WX    TMP DP  RH WIND       PRES   REMARKS
STURGEON BAY   CLEAR     23  19  86 N3        30.28S
MANITOWOC      CLOUDY    25  22  88 NW5       30.27S
SHEBOYGAN      CLOUDY    22  18  85 W8        30.27R
$$

LMZ563-521-522-541>543-191200-
LAKESHORE

STATION/POSITION TIME  TEMP    WIND        PRES    VSBY  WAVE
                       AIR SEA DIR/SP/G                  HT/PER
                 (UTC) (F)     (DEG/KT/KT) (MB)    (MI)  (FT/S)
SHEBOYGAN LKSHOR 1100   24 33  280/  6/  8 1026.2R
KEWAUNEE LKSHORE 1100   21     300/  3/  6 1024.0S
ALGOMA MARINA    1100          340/  7/  8   N/A
NORTHPORT PIER   1100   27     330/  4/  8 1025.1S
SISTER BAY LKSHO 1100           20/  7/  8   N/A
CHAMBERS ISLAND  1100   25     320/  6/  8 1025.4R
MENOMINEE LKSHOR 1100   18     280/  5/  6 1025.8S
$$


USA.gov is the U.S. government's official web portal to all federal, state and local government web resources and services.